Find WHDW 17-08

NORAD ID: 67243 Int'l Des: 2025-311 Owner: ZXW Country: CN Constellation: xingwang operational
LEOCIRCULAR

現在のビュー

3D地球を読み込み中...

WHDW 17-08について

説明を読み込み中...

次回通過

Passes for default location (London). Set your location on the main map for personalized predictions.

高度履歴

Loading altitude history...

軌道要素

1 67243U 25311H 26145.83338922 -.00000092 00000-0 67949-4 0 9991
2 67243 50.0004 196.0685 0001033 248.4000 111.6762 13.29322673 20366
Epoch: May 25, 2026 • Age: 22 hours

現在のステータス

高度 1149.2 km
速度 7.28 km/s
衛星直下点 15.98°N, 162.2°W
打ち上げ日 Dec 25, 2025
運用期間 0.4 years
タイプ other

技術仕様

分類 Payload
質量 700.00 kg
乾燥質量 700.00 kg
総質量 700.00 kg
長さ 3.00 m
直径 1.00 m
スパン 10.00 m
形状 Box + 2 Pan
製造者 CAST
バスタイプ Xingwang C
フェーズステータス In Orbit
所有者/国 ZXW/CN

Most Searched